Starlink 2071

operational
NORAD ID: 47361 Int'l Des: 2021-005 Owner: SPXS Country: US Constellation: starlink
LEOCIRCULARSTARLINK_TYPE

关于 Starlink 2071

正在加载描述...

实时位置

正在加载3D地球...

即将过境

高度历史

Altitude vs Time

uPlot chart will show altitude changes over time

两行轨道根数

1 47361U 21005N 25304.07921509 .00009539 00000-0 65805-3 0 9999
2 47361 53.0540 253.4616 0001748 89.8644 270.2545 15.06419641263920
Epoch: Oct 31, 2025 • Age: 17 hours

当前状态

高度 566.7 km
速度 7.58 km/s
星下点 -52.90°S, 157.22°W
发射日期 Jan 20, 2021
运行时间 4.7 years
类型 internet

技术详情

分类 Payload
质量 260.00 kg
干质量 248.00 kg
总质量 260.00 kg
长度 0.20 m
直径 2.80 m
跨度 9.00 m
形状 Box + pan
制造商 SPXS
平台类型 Starlink
阶段状态 In Orbit
所有者/国家 SPXS/US

大型星座

Loading constellations...